• In Portugal
  • List of Countries
  • For 7 days
  • Water Temperature
  • Satellite Maps
  • Weather Map
  • Weather Widgets
  • user-avatar
    Login

    Hourly Weather Saurimo

    Today, 23 May, Wednesday

    Time Temperature Precipitation Wind Pressure Humidity
    00:00 +19°C° 0 mm 2 mps 671 mmHg 45%
    01:00 +18°C° 0 mm 2 mps 671 mmHg 45%
    02:00 +18°C° 0 mm 2 mps 671 mmHg 45%
    03:00 +18°C° 0 mm 2 mps 671 mmHg 45%
    04:00 +17°C° 0 mm 2 mps 671 mmHg 45%
    05:00 +18°C° 0 mm 3 mps 671 mmHg 45%
    06:00 +18°C° 0 mm 3 mps 672 mmHg 46%
    07:00 +19°C° 0 mm 3 mps 672 mmHg 44%
    08:00 +22°C° 0 mm 3 mps 673 mmHg 42%
    09:00 +26°C° 0 mm 3 mps 673 mmHg 39%
    10:00 +28°C° 0 mm 3 mps 674 mmHg 36%
    11:00 +29°C° 0 mm 3 mps 673 mmHg 34%
    12:00 +31°C° 0 mm 3 mps 673 mmHg 33%
    13:00 +32°C° 0 mm 2 mps 673 mmHg 31%
    14:00 +31°C° 0 mm 2 mps 672 mmHg 33%
    15:00 +31°C° 0 mm 2 mps 672 mmHg 34%
    16:00 +30°C° 0 mm 1 mps 671 mmHg 36%
    17:00 +28°C° 0 mm 1 mps 671 mmHg 40%
    18:00 +27°C° 0 mm 1 mps 671 mmHg 44%
    19:00 +25°C° 0 mm 1 mps 671 mmHg 48%
    20:00 +24°C° 0 mm 1 mps 671 mmHg 51%
    21:00 +23°C° 0 mm 1 mps 672 mmHg 53%
    22:00 +22°C° 0 mm 1 mps 672 mmHg 55%
    23:00 +22°C° 0 mm 1 mps 672 mmHg 57%

    Tomorrow, 24 May, Thursday

    Time Temperature Precipitation Wind Pressure Humidity
    00:00 +21°C° 0 mm 1 mps 671 mmHg 58%
    01:00 +21°C° 0 mm 1 mps 671 mmHg 59%
    02:00 +20°C° 0 mm 1 mps 671 mmHg 60%
    03:00 +20°C° 0 mm 1 mps 671 mmHg 60%
    04:00 +19°C° 0 mm 1 mps 671 mmHg 61%
    05:00 +19°C° 0 mm 2 mps 671 mmHg 59%
    06:00 +20°C° 0 mm 2 mps 671 mmHg 57%
    07:00 +20°C° 0 mm 2 mps 672 mmHg 55%
    08:00 +24°C° 0 mm 3 mps 672 mmHg 49%
    09:00 +27°C° 0 mm 3 mps 673 mmHg 42%
    10:00 +30°C° 0 mm 3 mps 673 mmHg 36%
    11:00 +31°C° 0 mm 3 mps 673 mmHg 33%
    12:00 +32°C° 0 mm 2 mps 673 mmHg 31%
    13:00 +34°C° 0 mm 2 mps 672 mmHg 29%
    14:00 +32°C° 0 mm 2 mps 672 mmHg 31%
    15:00 +31°C° 0 mm 1 mps 671 mmHg 34%
    16:00 +30°C° 0 mm 1 mps 671 mmHg 37%
    17:00 +28°C° 0 mm 1 mps 671 mmHg 41%
    18:00 +27°C° 0 mm 1 mps 671 mmHg 44%
    19:00 +25°C° 0 mm 1 mps 670 mmHg 48%
    20:00 +24°C° 0 mm 1 mps 671 mmHg 50%
    21:00 +23°C° 0 mm 1 mps 671 mmHg 51%
    22:00 +23°C° 0 mm 1 mps 671 mmHg 53%
    23:00 +22°C° 0 mm 1 mps 671 mmHg 54%

    Day after tomorrow, 25 May, Friday

    Time Temperature Precipitation Wind Pressure Humidity
    00:00 +22°C° 0 mm 1 mps 670 mmHg 55%
    01:00 +21°C° 0 mm 1 mps 670 mmHg 57%
    02:00 +21°C° 0 mm 1 mps 670 mmHg 58%
    03:00 +19°C° 0 mm 2 mps 669 mmHg 58%
    04:00 +19°C° 0 mm 2 mps 669 mmHg 59%
    05:00 +20°C° 0 mm 2 mps 670 mmHg 58%
    06:00 +20°C° 0 mm 2 mps 670 mmHg 57%
    07:00 +21°C° 0 mm 3 mps 671 mmHg 56%
    08:00 +25°C° 0 mm 3 mps 672 mmHg 49%
    09:00 +28°C° 0 mm 3 mps 672 mmHg 42%
    10:00 +30°C° 0 mm 4 mps 673 mmHg 35%
    11:00 +31°C° 0 mm 3 mps 672 mmHg 32%
    12:00 +33°C° 0 mm 3 mps 672 mmHg 29%
    13:00 +34°C° 0 mm 2 mps 671 mmHg 26%
    14:00 +32°C° 0 mm 2 mps 671 mmHg 30%
    15:00 +31°C° 0 mm 2 mps 670 mmHg 33%
    16:00 +29°C° 0 mm 1 mps 669 mmHg 36%
    17:00 +28°C° 0 mm 1 mps 670 mmHg 39%
    18:00 +27°C° 0 mm 2 mps 670 mmHg 41%
    19:00 +26°C° 0 mm 2 mps 670 mmHg 43%
    20:00 +25°C° 0 mm 2 mps 670 mmHg 43%
    21:00 +25°C° 0 mm 2 mps 671 mmHg 44%
    22:00 +25°C° 0 mm 2 mps 671 mmHg 44%
    23:00 +24°C° 0 mm 2 mps 671 mmHg 44%

    26 May, Saturday

    Time Temperature Precipitation Wind Pressure Humidity
    00:00 +24°C° 0 mm 2 mps 671 mmHg 43%
    01:00 +24°C° 0 mm 2 mps 670 mmHg 43%
    02:00 +24°C° 0 mm 2 mps 670 mmHg 42%
    03:00 +23°C° 0 mm 2 mps 670 mmHg 42%
    04:00 +22°C° 0 mm 3 mps 670 mmHg 41%
    05:00 +22°C° 0 mm 3 mps 670 mmHg 43%
    06:00 +22°C° 0 mm 3 mps 671 mmHg 44%
    07:00 +22°C° 0 mm 3 mps 671 mmHg 46%
    08:00 +25°C° 0 mm 3 mps 672 mmHg 43%
    09:00 +26°C° 0 mm 3 mps 672 mmHg 40%
    10:00 +28°C° 0 mm 3 mps 673 mmHg 38%
    11:00 +29°C° 0 mm 3 mps 672 mmHg 34%
    12:00 +30°C° 0 mm 3 mps 672 mmHg 31%
    13:00 +31°C° 0 mm 2 mps 671 mmHg 27%
    14:00 +31°C° 0 mm 2 mps 671 mmHg 29%
    15:00 +30°C° 0 mm 2 mps 671 mmHg 30%
    16:00 +30°C° 0 mm 1 mps 670 mmHg 32%
    17:00 +28°C° 0 mm 1 mps 671 mmHg 36%
    18:00 +26°C° 0 mm 1 mps 671 mmHg 40%
    19:00 +24°C° 0 mm 1 mps 671 mmHg 44%
    20:00 +24°C° 0 mm 1 mps 671 mmHg 46%
    21:00 +23°C° 0 mm 1 mps 672 mmHg 47%
    22:00 +22°C° 0 mm 1 mps 672 mmHg 49%
    23:00 +22°C° 0 mm 1 mps 672 mmHg 50%

    27 May, Sunday

    Time Temperature Precipitation Wind Pressure Humidity
    00:00 +22°C° 0 mm 1 mps 671 mmHg 51%
    01:00 +21°C° 0 mm 2 mps 671 mmHg 51%
    02:00 +20°C° 0 mm 2 mps 671 mmHg 52%
    03:00 +20°C° 0 mm 2 mps 671 mmHg 53%
    04:00 +19°C° 0 mm 2 mps 671 mmHg 54%
    05:00 +20°C° 0 mm 2 mps 671 mmHg 54%
    06:00 +20°C° 0 mm 2 mps 672 mmHg 53%
    07:00 +21°C° 0 mm 2 mps 672 mmHg 53%
    08:00 +24°C° 0 mm 3 mps 673 mmHg 45%
    09:00 +27°C° 0 mm 3 mps 673 mmHg 37%
    10:00 +30°C° 0 mm 3 mps 674 mmHg 29%
    11:00 +31°C° 0 mm 2 mps 673 mmHg 27%
    12:00 +32°C° 0 mm 2 mps 673 mmHg 25%
    13:00 +34°C° 0 mm 2 mps 672 mmHg 23%
    14:00 +32°C° 0 mm 2 mps 672 mmHg 25%
    15:00 +31°C° 0 mm 2 mps 671 mmHg 27%
    16:00 +30°C° 0 mm 2 mps 671 mmHg 29%
    17:00 +28°C° 0 mm 2 mps 671 mmHg 34%
    18:00 +26°C° 0 mm 2 mps 671 mmHg 38%
    19:00 +24°C° 0 mm 2 mps 672 mmHg 43%
    20:00 +24°C° 0 mm 2 mps 672 mmHg 45%
    21:00 +23°C° 0 mm 2 mps 672 mmHg 46%
    22:00 +21°C° 0 mm 2 mps 672 mmHg 48%
    23:00 +21°C° 0 mm 2 mps 672 mmHg 49%

    28 May, Monday

    Time Temperature Precipitation Wind Pressure Humidity
    00:00 +20°C° 0 mm 2 mps 672 mmHg 51%
    01:00 +20°C° 0 mm 2 mps 671 mmHg 52%
    02:00 +19°C° 0 mm 2 mps 671 mmHg 53%
    03:00 +19°C° 0 mm 2 mps 671 mmHg 55%
    04:00 +18°C° 0 mm 2 mps 671 mmHg 56%
    05:00 +19°C° 0 mm 2 mps 672 mmHg 55%
    06:00 +20°C° 0 mm 2 mps 672 mmHg 55%
    07:00 +20°C° 0 mm 2 mps 673 mmHg 54%
    08:00 +24°C° 0 mm 3 mps 674 mmHg 46%
    09:00 +28°C° 0 mm 3 mps 674 mmHg 38%
    10:00 +31°C° 0 mm 3 mps 675 mmHg 30%
    11:00 +33°C° 0 mm 3 mps 674 mmHg 28%
    12:00 +34°C° 0 mm 2 mps 674 mmHg 26%
    13:00 +35°C° 0 mm 2 mps 673 mmHg 23%
    14:00 +34°C° 0 mm 2 mps 673 mmHg 25%
    15:00 +32°C° 0 mm 2 mps 672 mmHg 26%
    16:00 +31°C° 0 mm 2 mps 672 mmHg 28%
    17:00 +29°C° 0 mm 2 mps 672 mmHg 33%
    18:00 +27°C° 0 mm 2 mps 672 mmHg 38%
    19:00 +24°C° 0 mm 1 mps 672 mmHg 43%
    20:00 +24°C° 0 mm 1 mps 672 mmHg 46%
    21:00 +23°C° 0 mm 1 mps 672 mmHg 49%
    22:00 +21°C° 0 mm 2 mps 672 mmHg 51%
    23:00 +21°C° 0 mm 2 mps 672 mmHg 53%
    Show more